Location: Arbon
(43.0005°N, 0.7472°E)
Time: 11:54:17
(UTC+00:00)

Cosmos 1943 - Pass Details

Date: 22 April 2026
Orbit: 832 x 847 km, 71.0° (Epoch: 16 May)

Event Time Altitude Azimuth Distance (km) Brightness Sun altitude
Exits shadow 20:23:16 24° 145° (SE) 1,676 4.2 -16.4°
Maximum altitude 20:25:33 33° 104° (ESE) 1,390 3.8 -16.8°
Drops below altitude 10° 20:30:33 10° 43° (NE) 2,472 5.6 -17.5°
Sets 20:33:12 0° 34° (NNE) 3,410 6.4 -17.9°
